Location: Unspecified
(41.1637°N, 24.2901°E)
Time: 12:07:52
(UTC+02:00)

ISS - Pass Details

Date: 08 May 2026
Orbit: 414 x 424 km, 51.6° (Epoch: 12 May)

Event Time Altitude Azimuth Distance (km) Brightness Sun altitude
Rises 20:51:51 0° 226° (SW) 2,336 0.1 -14.4°
Reaches altitude 10° 20:53:56 10° 224° (SW) 1,478 -0.9 -14.7°
Maximum altitude 20:57:13 67° 142° (SE) 452 -3.9 -15.2°
Drops below altitude 10° 21:00:32 10° 59° (ENE) 1,489 -1.2 -15.7°
Enters shadow 21:01:54 - 57° (ENE) 2,049 -0.4 -15.8°
